IQ1GE Weather Reports


Display with metric or nautical units.
time (UTC)temp
F
wind
direction
speed
MPH
gust
MPH
rain 1hr
in
rain 24hr
in
rain mn
in
humidity
%
barometer
mb
20260506062446 62 285 0.0 0.0 0.00 1.25 0.00 91 1009.2
20260506061946 62 309 0.0 0.0 0.00 1.26 0.00 91 1009.3
20260506061440 62 305 0.0 0.0 0.00 1.27 0.00 91 1009.2
20260506060943 61 51 0.0 0.0 0.00 1.30 0.00 91 1009.2
20260506060440 61 36 0.0 0.0 0.00 1.33 0.00 90 1009.3
20260506050946 59 16 0.0 0.0 0.02 1.71 0.00 90 1009.7
20260506050443 59 81 0.0 0.0 0.02 1.72 0.00 90 1009.6
20260506044941 58 14 0.0 0.0 0.02 1.78 0.00 89 1009.5
20260506044441 58 10 0.0 0.0 0.02 1.81 0.00 89 1009.6
20260506043940 58 359 0.0 0.0 0.02 1.85 0.00 89 1009.6
20260506043444 58 9 0.0 0.0 0.02 1.90 0.00 89 1009.8
20260506042947 59 33 0.0 0.0 0.02 1.95 0.00 88 1009.9
20260506042444 59 45 0.0 0.0 0.01 1.99 0.00 88 1009.9
20260506041944 59 348 0.0 0.0 0.01 2.04 0.00 88 1009.9
20260506041441 59 41 0.0 0.0 0.00 2.10 0.00 87 1010.3
20260506040941 59 41 0.0 0.0 0.00 2.13 0.00 87 1010.7
20260506040441 59 41 0.0 0.0 0.00 2.18 0.00 86 1010.6
20260506035944 59 60 0.0 0.0 0.00 2.29 0.00 86 1010.5
20260506035444 59 27 0.0 0.0 0.00 2.32 0.00 86 1010.4
20260506034941 59 18 0.0 0.0 0.00 2.33 0.00 86 1010.4
20260506034447 59 349 0.0 0.0 0.00 2.36 0.00 86 1010.0
20260506033944 59 9 0.0 0.0 0.02 2.38 0.00 87 1009.9
20260506033441 59 25 0.0 0.0 0.03 2.39 0.00 88 1009.9
20260506032950 59 25 0.0 0.0 0.03 2.41 0.00 88 1010.0
20260506032441 58 8 0.0 0.0 0.04 2.44 0.00 89 1009.9
20260506031947 58 16 0.0 0.0 0.04 2.47 0.00 89 1009.9
20260506031441 58 37 0.0 0.0 0.04 2.49 0.00 90 1009.9
20260506030941 58 35 0.0 0.0 0.06 2.52 0.00 90 1010.1
20260506030444 58 15 0.0 0.0 0.11 2.55 0.00 90 1010.4
20260506025947 58 20 0.0 0.0 0.21 2.55 0.00 90 1010.5
20260506025444 58 39 0.0 0.0 0.29 2.56 0.00 91 1010.6
20260506024944 58 18 0.0 0.0 0.34 2.58 0.00 91 1010.7
20260506024447 58 345 0.0 0.0 0.36 2.58 0.00 91 1010.8
20260506023941 58 27 0.0 0.0 0.40 2.57 0.00 91 1011.0
20260506023441 58 74 0.0 0.0 0.50 2.58 0.00 91 1011.1
20260506022941 58 359 0.0 0.0 0.59 2.59 0.00 91 1011.1
20260506022441 58 12 0.0 0.0 0.82 2.59 0.00 91 1011.3
20260506021947 58 27 0.0 0.0 0.87 2.60 0.00 90 1011.3
20260506021441 58 35 0.0 0.0 0.92 2.61 0.00 90 1011.3
20260506020941 58 31 0.0 0.0 0.93 2.61 0.00 91 1011.4
20260506020444 58 359 0.0 0.0 0.90 2.57 0.00 91 1011.4
20260506015938 58 345 0.0 0.0 0.81 2.48 0.00 91 1011.6
20260506015438 58 359 0.0 0.0 0.75 2.40 0.00 91 1011.9
20260506014941 58 359 0.0 0.0 0.70 2.36 0.00 91 1012.2
20260506014438 58 359 0.0 0.0 0.70 2.35 0.00 90 1012.2
20260506013944 59 359 0.0 0.0 0.64 2.29 0.00 89 1012.2
20260506013438 61 337 0.0 0.0 0.58 2.19 0.00 90 1012.7
20260506012938 61 214 0.0 0.0 0.49 2.10 0.00 90 1012.6
20260506012438 61 212 0.0 0.0 0.28 1.87 0.00 90 1012.3
20260506011944 61 274 0.0 0.0 0.27 1.83 0.00 90 1012.0
20260506011438 61 283 0.0 0.0 0.22 1.78 0.00 91 1011.9
20260506010938 61 287 0.0 0.0 0.19 1.77 0.00 90 1011.9
20260506010441 61 359 0.0 0.0 0.18 1.75 0.00 90 1011.9
20260506005941 62 359 0.0 0.0 0.17 1.76 0.00 90 1011.9
20260506005441 62 359 0.0 0.0 0.14 1.74 0.00 89 1011.9
20260506004944 62 359 0.0 0.0 0.14 1.74 0.00 89 1012.0
20260506004441 62 359 0.0 0.0 0.12 1.73 0.00 89 1012.1
20260506003941 62 359 0.0 0.0 0.12 1.73 0.00 89 1012.2
20260506003438 62 359 0.0 0.0 0.07 1.68 0.00 89 1011.8
20260506002938 62 359 0.0 0.0 0.06 1.66 0.00 89 1011.8
20260506002438 63 359 0.0 0.0 0.03 1.64 0.00 89 1011.7
20260506001938 63 359 0.0 0.0 0.00 1.60 0.00 89 1011.7
20260506001441 63 359 0.0 0.0 0.00 1.60 0.00 88 1011.7
20260506000941 63 359 0.0 0.0 0.00 1.60 0.00 88 1011.8
20260506000441 63 359 0.0 0.0 0.00 1.60 0.00 87 1011.9
20260505235938 63 359 0.0 0.0 0.00 1.60 0.00 87 1012.1
20260505235444 63 359 0.0 0.0 0.00 1.60 0.00 87 1012.0
20260505234938 63 359 0.0 0.0 0.00 1.60 0.00 87 1012.2
20260505234441 63 359 0.0 0.0 0.00 1.60 0.00 87 1012.5
20260505233938 63 359 0.0 0.0 0.00 1.60 0.00 87 1012.7
20260505233444 63 359 0.0 0.0 0.00 1.60 0.00 86 1012.7
20260505232938 63 359 0.0 0.0 0.00 1.60 0.00 85 1012.8
20260505232438 63 359 0.0 0.0 0.00 1.60 0.00 85 1012.8
20260505231938 63 359 0.0 0.0 0.00 1.60 0.00 85 1012.9
20260505231444 63 359 0.0 0.0 0.00 1.60 0.00 85 1013.0
20260505230938 63 359 0.0 0.0 0.00 1.60 0.00 85 1013.1
20260505230438 63 220 0.0 0.0 0.00 1.60 0.00 85 1013.2
20260505225941 63 220 0.0 0.0 0.00 1.60 0.00 85 1013.1
20260505225441 63 359 0.0 0.0 0.00 1.60 0.00 85 1013.1
20260505224938 63 359 0.0 0.0 0.00 1.60 0.00 85 1013.2
20260505224438 63 359 0.0 0.0 0.00 1.60 0.00 85 1013.3
20260505223938 64 359 0.0 0.0 0.00 1.60 0.00 85 1013.4
20260505223441 64 359 0.0 0.0 0.00 1.60 0.00 85 1013.5
20260505222941 64 193 0.0 0.0 0.00 1.60 0.00 85 1013.5
20260505222438 64 191 0.0 0.0 0.00 1.60 0.00 85 1013.6
20260505221944 64 233 0.0 0.0 0.00 1.60 0.00 85 1013.7
20260505221438 64 359 0.0 0.0 0.00 1.60 0.00 85 1013.5
20260505220941 64 359 0.0 0.0 0.00 1.60 0.00 85 1013.4
20260505220438 64 359 0.0 0.0 0.00 1.60 0.00 85 1013.4
20260505215941 64 236 0.0 0.0 0.00 1.60 0.00 85 1013.5
20260505215447 64 359 0.0 0.0 0.00 1.60 0.00 85 1013.6
20260505214941 64 359 0.0 0.0 0.00 1.60 0.00 85 1013.5
20260505214441 64 235 0.0 0.0 0.00 1.60 0.00 85 1013.7
20260505213941 64 359 0.0 0.0 0.00 1.60 0.00 85 1013.7
20260505213441 64 359 0.0 0.0 0.00 1.60 0.00 85 1013.8
20260505212938 64 236 0.0 0.0 0.00 1.60 0.00 85 1013.9
20260505212438 64 200 0.0 0.0 0.00 1.60 0.00 85 1013.7
20260505211941 64 359 0.0 0.0 0.00 1.60 0.00 85 1013.8
20260505211438 64 359 0.0 0.0 0.00 1.60 0.00 85 1013.8
20260505210941 64 211 0.0 0.0 0.00 1.60 0.00 85 1013.8
20260505210441 64 359 0.0 0.0 0.00 1.60 0.00 85 1014.0
20260505205938 64 201 0.0 0.0 0.00 1.60 0.00 85 1014.0
20260505205438 64 359 0.0 0.0 0.00 1.60 0.00 85 1014.0
20260505204941 64 220 0.0 0.0 0.00 1.60 0.00 85 1014.0
20260505204438 64 197 0.0 0.0 0.00 1.60 0.00 85 1014.1
20260505203938 64 359 0.0 0.0 0.00 1.60 0.00 85 1014.2
20260505203444 64 195 0.0 0.0 0.00 1.60 0.00 85 1014.2
20260505202941 64 359 0.0 0.0 0.00 1.60 0.00 85 1014.2
20260505202441 64 205 0.0 0.0 0.00 1.60 0.00 84 1014.1
20260505201938 64 359 0.0 0.0 0.00 1.60 0.00 84 1014.2
20260505201441 64 359 0.0 0.0 0.00 1.60 0.00 84 1014.1
20260505200938 64 359 0.0 0.0 0.00 1.60 0.00 84 1014.1
20260505200438 64 359 0.0 0.0 0.00 1.60 0.00 84 1014.1
20260505195938 64 359 0.0 0.0 0.00 1.60 0.00 84 1014.2
20260505195438 64 359 0.0 0.0 0.00 1.60 0.00 84 1014.2
20260505194941 64 359 0.0 0.0 0.00 1.60 0.00 84 1014.2
20260505194444 64 359 0.0 0.0 0.00 1.60 0.00 84 1014.2
20260505193938 64 359 0.0 0.0 0.00 1.60 0.00 84 1014.1
20260505193444 64 359 0.0 0.0 0.00 1.60 0.00 84 1014.1
20260505192941 64 222 0.0 0.0 0.00 1.60 0.00 84 1014.1
20260505192444 64 359 0.0 0.0 0.00 1.60 0.00 84 1014.1
20260505191938 64 359 0.0 0.0 0.00 1.60 0.00 84 1014.0
20260505191438 64 359 0.0 0.0 0.00 1.60 0.00 84 1014.0
20260505190942 64 219 0.0 0.0 0.00 1.60 0.00 84 1013.9
20260505190439 64 359 0.0 0.0 0.00 1.60 0.00 84 1013.9
20260505185942 64 200 0.0 0.0 0.00 1.60 0.00 84 1013.7
20260505185445 64 359 0.0 0.0 0.00 1.60 0.00 84 1013.8
20260505184938 64 359 0.0 0.0 0.00 1.60 0.00 84 1013.8
20260505184439 64 359 0.0 0.0 0.00 1.60 0.00 84 1013.8
20260505183939 64 359 0.0 0.0 0.00 1.60 0.00 84 1013.9
20260505183445 64 359 0.0 0.0 0.00 1.60 0.00 84 1014.0
20260505182939 64 359 0.0 0.0 0.00 1.60 0.00 84 1014.0
20260505182445 64 359 0.0 0.0 0.00 1.60 0.00 83 1014.0
20260505181942 64 359 0.0 0.0 0.00 1.60 0.00 83 1014.0
20260505181439 65 359 0.0 0.0 0.00 1.60 0.00 83 1014.0
20260505180939 65 359 0.0 0.0 0.00 1.60 0.00 82 1014.0
20260505180442 65 359 0.0 0.0 0.00 1.60 0.00 82 1013.9
20260505175939 65 359 0.0 0.0 0.00 1.60 0.00 82 1013.9
20260505175439 65 359 0.0 0.0 0.00 1.60 0.00 82 1014.0
20260505174939 65 359 0.0 0.0 0.00 1.60 0.00 82 1013.9
20260505174439 65 359 0.0 0.0 0.00 1.60 0.00 81 1013.9
20260505173942 65 359 0.0 0.0 0.00 1.60 0.00 81 1013.9
20260505173439 65 189 0.0 0.0 0.00 1.60 0.00 81 1013.8
20260505172939 65 186 0.0 0.0 0.00 1.60 0.00 82 1013.7
20260505172442 65 359 0.0 0.0 0.00 1.60 0.00 82 1013.7
20260505171942 65 183 0.0 0.0 0.00 1.60 0.00 82 1013.8
20260505171442 65 153 0.0 0.0 0.00 1.60 0.00 81 1013.8
20260505170939 65 359 0.0 0.0 0.00 1.60 0.00 81 1013.8
20260505170439 65 359 0.0 0.0 0.00 1.60 0.00 80 1013.9
20260505165942 66 359 0.0 0.0 0.00 1.60 0.00 81 1013.9
20260505165439 66 212 0.0 0.0 0.00 1.60 0.00 80 1013.9
20260505164939 66 210 0.0 0.0 0.00 1.60 0.00 79 1013.9
20260505164439 66 251 0.0 0.0 0.00 1.60 0.00 79 1013.9
20260505163939 66 201 0.0 0.0 0.00 1.60 0.00 78 1013.9
20260505163439 66 199 0.0 0.0 0.00 1.60 0.00 78 1013.9
20260505162939 66 219 0.0 0.0 0.00 1.60 0.00 79 1013.9
20260505162439 66 359 0.0 0.0 0.00 1.60 0.00 79 1013.8
20260505161942 66 359 0.0 0.0 0.00 1.60 0.00 78 1013.8
20260505161439 66 177 0.0 0.0 0.00 1.60 0.00 77 1013.8
20260505160939 66 359 0.0 0.0 0.00 1.60 0.00 77 1013.8
20260505160445 66 219 0.0 0.0 0.00 1.60 0.00 77 1013.8
20260505152942 66 359 0.0 0.0 0.00 1.60 0.00 79 1014.0
20260505152439 65 359 0.0 0.0 0.00 1.60 0.00 79 1014.2
20260505151939 66 206 0.0 0.0 0.00 1.60 0.00 79 1014.2
20260505151439 66 187 0.0 0.0 0.00 1.60 0.00 78 1014.2
20260505150942 66 185 0.0 0.0 0.00 1.60 0.00 78 1014.1
20260505150442 66 359 0.0 0.0 0.00 1.60 0.00 78 1014.1
20260505140439 67 255 0.0 0.0 0.00 1.59 0.00 76 1014.0
20260505124942 67 154 0.0 0.0 0.00 1.59 0.00 74 1014.1
20260505124442 67 233 0.0 0.0 0.00 1.59 0.00 75 1014.1
20260505123939 67 204 0.0 0.0 0.00 1.59 0.00 75 1014.1
20260505123439 67 350 0.0 0.0 0.00 1.59 0.00 75 1014.1
20260505122939 66 359 0.0 0.0 0.00 1.59 0.00 75 1014.2
20260505122439 66 359 0.0 0.0 0.00 1.59 0.00 75 1014.2
20260505121939 66 359 0.0 0.0 0.00 1.59 0.00 73 1014.2
20260505121439 66 21 0.0 0.0 0.00 1.59 0.00 73 1014.1
20260505120945 66 39 0.0 0.0 0.00 1.59 0.00 74 1014.1
20260505120439 66 36 0.0 0.0 0.00 1.59 0.00 75 1014.1
20260505115939 65 17 0.0 0.0 0.00 1.59 0.00 75 1014.2
20260505115442 65 18 0.0 0.0 0.00 1.59 0.00 75 1014.2
20260505114942 65 36 0.0 0.0 0.00 1.59 0.00 75 1014.1
20260505114439 64 60 0.0 0.0 0.00 1.59 0.00 76 1014.1
20260505113939 64 41 0.0 0.0 0.00 1.59 0.00 76 1014.1
20260505113439 64 359 0.0 0.0 0.00 1.59 0.00 76 1014.2
20260505112942 64 23 0.0 0.0 0.00 1.59 0.00 75 1014.2
20260505112442 64 26 0.0 0.0 0.00 1.59 0.00 77 1014.3
20260505111942 63 13 0.0 0.0 0.00 1.59 0.00 76 1014.3
20260505111442 63 33 0.0 0.0 0.00 1.59 0.00 77 1014.2
20260505110939 63 28 0.0 0.0 0.00 1.59 0.00 78 1014.3
20260505110439 63 12 0.0 0.0 0.00 1.59 0.00 79 1014.3
20260505101939 60 359 0.0 0.0 0.00 1.59 0.00 84 1014.3
20260505101439 60 359 0.0 0.0 0.00 1.59 0.00 84 1014.2
20260505100939 60 359 0.0 0.0 0.00 1.59 0.00 85 1014.2
20260505100439 60 359 0.0 0.0 0.00 1.59 0.00 86 1014.2
20260505095939 60 359 0.0 0.0 0.00 1.59 0.00 86 1014.2
20260505095439 59 359 0.0 0.0 0.00 1.59 0.00 85 1014.3
20260505094945 59 359 0.0 0.0 0.00 1.59 0.00 85 1014.3
20260505094439 59 359 0.0 0.0 0.00 1.59 0.00 84 1014.4
20260505093939 59 359 0.0 0.0 0.00 1.59 0.00 83 1014.4
20260505093445 59 359 0.0 0.0 0.00 1.59 0.00 82 1014.3
20260505092939 59 359 0.0 0.0 0.00 1.59 0.00 82 1014.3
20260505092439 59 359 0.0 0.0 0.00 1.59 0.00 83 1014.2
20260505091942 60 359 0.0 0.0 0.00 1.59 0.00 83 1014.0
20260505091448 60 359 0.0 0.0 0.00 1.59 0.00 83 1014.1
20260505090945 60 359 0.0 0.0 0.00 1.59 0.00 82 1014.1
20260505090442 60 359 0.0 0.0 0.00 1.59 0.00 81 1014.1
20260505085939 61 359 0.0 0.0 0.00 1.59 0.00 81 1014.1
20260505085445 61 359 0.0 0.0 0.00 1.59 0.00 80 1014.1
20260505084939 61 359 0.0 0.0 0.00 1.59 0.00 80 1014.1
20260505084442 61 359 0.0 0.0 0.00 1.59 0.00 80 1014.0
20260505083942 61 359 0.0 0.0 0.00 1.59 0.00 81 1013.9
20260505083439 61 359 0.0 0.0 0.00 1.59 0.00 81 1013.8
20260505082939 61 359 0.0 0.0 0.00 1.59 0.00 82 1013.8
20260505082439 61 359 0.0 0.0 0.00 1.59 0.00 81 1013.8
20260505081939 61 359 0.0 0.0 0.00 1.59 0.00 81 1013.8
20260505081449 61 359 0.0 0.0 0.00 1.59 0.00 80 1013.9
20260505080940 61 359 0.0 0.0 0.00 1.59 0.00 80 1013.9
20260505080439 61 359 0.0 0.0 0.00 1.59 0.00 80 1013.8
20260505075946 60 359 0.0 0.0 0.00 1.59 0.00 82 1013.6
20260505075440 60 359 0.0 0.0 0.00 1.59 0.00 82 1013.5
20260505074939 60 359 0.0 0.0 0.00 1.59 0.00 82 1013.6
20260505074440 60 359 0.0 0.0 0.00 1.59 0.00 83 1013.7
20260505073946 59 359 0.0 0.0 0.00 1.59 0.00 84 1013.8
20260505073440 59 359 0.0 0.0 0.00 1.59 0.00 84 1013.9
20260505072949 59 359 0.0 0.0 0.00 1.59 0.00 85 1013.9
20260505072446 58 359 0.0 0.0 0.01 1.59 0.00 86 1013.9
20260505071940 58 359 0.0 0.0 0.03 1.59 0.00 85 1013.9
20260505071440 58 359 0.0 0.0 0.03 1.59 0.00 85 1013.9
20260505070943 58 359 0.0 0.0 0.07 1.59 0.00 85 1013.8
20260505070443 58 359 0.0 0.0 0.09 1.59 0.00 85 1013.8
20260505065946 58 359 0.0 0.0 0.11 1.59 0.00 84 1013.6